Regional Weather Roundup
Issued by NWS

Home | Current Version | Previous Version | Graphics & Text | Print | Product List | Glossary On
Versions: 1 2 3 4 5 6 7 8 9 10 11 12 13 14 15 16 17 18 19 20 21 22 23 24 25 26 27 28 29 30 31 32 33 34 35 36 37 38 39 40 41 42 43 44 45 46 47 48 49 50
000
ASUS43 KFSD 211502
RWRSD

WEATHER ROUNDUP FOR SOUTH DAKOTA
NATIONAL WEATHER SERVICE SIOUX FALLS SD
1000 AM CDT SUN SEP 21 2014

NOTE: "FAIR" INDICATES FEW OR NO CLOUDS BELOW 12,000 FEET WITH NO
SIGNIFICANT WEATHER AND/OR OBSTRUCTIONS TO VISIBILITY.


SDZ001>005-009-010-012>017-211600-
NORTHWEST AND NORTH CENTRAL SOUTH DAKOTA

CITY           SKY/WX    TMP DP  RH WIND       PRES   REMARKS
FAITH            N/A     58  41  53 NW7       30.32S
MOBRIDGE       SUNNY     54  44  69 NW9       30.27R
$$

SDZ012>016-024>037-041>051-057-063-072>074-211600-
SOUTHWEST AND SOUTH CENTRAL SOUTH DAKOTA

CITY           SKY/WX    TMP DP  RH WIND       PRES   REMARKS
RAPID CTY ARPT SUNNY     60  39  45 CALM      30.36R
PIERRE         SUNNY     59  42  53 NW10      30.29R
CUSTER         SUNNY     55  36  48 SW7       30.42R
ELLSWORTH AFB  SUNNY     58  40  51 SW3       30.36R
PHILIP         SUNNY     56  42  59 W3        30.33R
PINE RIDGE     SUNNY     52  43  71 CALM      30.37R
WINNER         FAIR      59  41  51 NW9       30.32R
$$

SDZ004>011-016>023-039-040-211600-
NORTHEAST SOUTH DAKOTA

CITY           SKY/WX    TMP DP  RH WIND       PRES   REMARKS
ABERDEEN       SUNNY     58  47  66 N9        30.26R
WATERTOWN      SUNNY     57  48  72 NW13      30.22R
SISSETON         N/A     58  51  78 N13       30.21R
$$

SDZ017-020-022-023-036>040-048>070-211600-
SOUTHEAST SOUTH DAKOTA

CITY           SKY/WX    TMP DP  RH WIND       PRES   REMARKS
SIOUX FALLS    SUNNY     60  47  61 N12       30.22R
HURON          SUNNY     58  44  60 N10       30.26R
CHAMBERLAIN    SUNNY     59  43  56 NW7       30.29R
MITCHELL       SUNNY     60  46  59 N9        30.27R
YANKTON        SUNNY     57  45  62 NW13      30.25R
$$

ABBREVIATIONS USED IN REMARKS
   TC - TEMPERATURE IN CELSIUS
  WCI - WIND CHILL INDEX
   HX - HEAT INDEX
  VSB - VISIBILITY



USA.gov is the U.S. government's official web portal to all federal, state and local government web resources and services.